Weather History for Monticello, AR

Change the Weather History Date:

Saturday, November 9, 2013

  Actual Average Record
Temperature  
Mean Temperature 54 °F -  
Max Temperature 59 °F 65 °F 81 °F (1980)
Min Temperature 48 °F 43 °F 16 °F (1991)
Degree Days  
Heating Degree Days 12    
Growing Degree Days 4 (Base 50)    
Moisture  
Dew Point 47 °F    
Average Humidity 79    
Maximum Humidity 90    
Minimum Humidity 62    
Precipitation  
Precipitation 0.00 in - - ()
Sea Level Pressure  
Sea Level Pressure 30.25 in    
Wind  
Wind Speed 1 mph (SSW)    
Max Wind Speed 7 mph    
Max Gust Speed -    
Visibility 10 miles    
Events Rain    
Averages and records for this station are not official NWS values.
T = Trace of Precipitation, MM = Missing Value Source: NWS Daily Summary

Daily Weather History Graph

Daily Weather History Graph

Search for Another Location

Airport:

Trip Planner

Search our weather history database for the weather conditions in past years. The results will help you decide how hot, cold, wet, or windy it might be!

Date:

Astronomy

Nov. 09, 2013 Rise Set
Actual Time 6:33 AM CST 5:07 PM CST
Civil Twilight 6:07 AM CST 5:34 PM CST
Nautical Twilight 5:37 AM CST 6:03 PM CST
Astronomical Twilight 5:08 AM CST 6:33 PM CST
Moon 12:13 PM CST (11/9) 11:34 PM CST (11/9)
Length of Visible Light 11h 26m
Length of Day
10h 34m
Waxing Crescent, 44% of the Moon is Illuminated
Nov 9
Waxing Crescent
Nov 9
First Quarter
Nov 17
Full
Nov 25
Last Quarter
Dec 2
New

Hourly Weather History & Observations

Time (CST) Temp. Dew Point Humidity Pressure Visibility Wind Dir Wind Speed Gust Speed Precip Events Conditions
12:53 AM 50.0 °F 45.0 °F 83% 30.21 in 10.0 mi Calm Calm - N/A   Clear
1:53 AM 48.9 °F 45.0 °F 86% 30.21 in 10.0 mi Calm Calm - N/A   Clear
2:53 AM 48.9 °F 45.0 °F 86% 30.21 in 10.0 mi Calm Calm - N/A   Clear
3:53 AM 50.0 °F 44.1 °F 80% 30.22 in 10.0 mi Calm Calm - N/A   Scattered Clouds
4:53 AM 50.0 °F 45.0 °F 83% 30.23 in 10.0 mi Calm Calm - 0.00 in   Clear
5:53 AM 48.9 °F 46.0 °F 90% 30.24 in 10.0 mi Calm Calm - 0.00 in   Clear
6:53 AM 50.0 °F 46.0 °F 86% 30.25 in 10.0 mi Calm Calm - 0.00 in   Clear
7:53 AM 50.0 °F 46.9 °F 89% 30.28 in 10.0 mi Calm Calm - N/A   Overcast
8:53 AM 51.1 °F 46.9 °F 86% 30.29 in 10.0 mi Calm Calm - N/A   Mostly Cloudy
9:53 AM 54.0 °F 46.9 °F 77% 30.27 in 10.0 mi Calm Calm - N/A   Mostly Cloudy
10:53 AM 55.0 °F 46.0 °F 72% 30.27 in 10.0 mi Calm Calm - 0.00 in Rain Light Rain
11:53 AM 57.9 °F 46.0 °F 65% 30.24 in 10.0 mi SSE 3.5 mph - 0.00 in   Overcast
12:53 PM 57.0 °F 46.0 °F 67% 30.22 in 10.0 mi SSE 5.8 mph - N/A   Overcast
1:53 PM 59.0 °F 46.0 °F 62% 30.23 in 10.0 mi SW 6.9 mph - 0.00 in   Overcast
2:53 PM 57.9 °F 46.0 °F 65% 30.23 in 10.0 mi WSW 3.5 mph - N/A   Overcast
3:53 PM 57.9 °F 46.0 °F 65% 30.23 in 10.0 mi SW 3.5 mph - N/A   Overcast
4:53 PM 57.0 °F 48.9 °F 74% 30.23 in 10.0 mi Calm Calm - 0.00 in Rain Light Rain
5:53 PM 54.0 °F 50.0 °F 86% 30.25 in 10.0 mi Calm Calm - 0.00 in   Mostly Cloudy
6:53 PM 55.0 °F 50.0 °F 83% 30.26 in 10.0 mi Calm Calm - 0.00 in   Overcast
7:53 PM 55.0 °F 48.9 °F 80% 30.27 in 10.0 mi SW 3.5 mph - N/A   Overcast
8:53 PM 55.0 °F 48.9 °F 80% 30.27 in 10.0 mi Calm Calm - N/A   Overcast
9:53 PM 54.0 °F 48.9 °F 83% 30.27 in 10.0 mi Calm Calm - 0.00 in Rain Light Rain
10:53 PM 54.0 °F 50.0 °F 86% 30.28 in 10.0 mi Calm Calm - 0.00 in   Overcast
11:53 PM 53.1 °F 50.0 °F 89% 30.27 in 10.0 mi Calm Calm - N/A   Overcast